Location: Althorst
(53.6379°N, 10.7715°E)
Time: 03:52:58
(UTC+00:00)

Cosmos 1867 - Pass Details

Date: 10 December 2019
Orbit: 777 x 799 km, 65.0° (Epoch: 26 January)

Event Time Altitude Azimuth Distance (km) Brightness Sun altitude
Rises 16:16:59 0° 312° (NW) 3,315 7.1 -10.9°
Reaches altitude 10° 16:19:32 10° 319° (NW) 2,383 6.3 -11.3°
Maximum altitude 16:24:48 45° 32° (NNE) 1,080 3.9 -12.0°
Enters shadow 16:29:54 11° 105° (ESE) 2,320 5.5 -12.7°
